Wind_Speed
4 5 5 5 5 4 4 4 4 4 3 3 3 3 2 3 3 3 3 4 5 5 6 5 5 6 7 7 7 8 8 9 9 10 10 11 11 12 12 13 12 12 12
5 5 5 5 4 3 4 4 4 3 3 3 2 2 2 3 4 4 4 5 5 5 6 7 6 7 7 8 9 9 9 10 11 11 11 11 11 12 12 13 13 13 13
4 4 4 4 3 3 3 3 3 3 2 2 2 2 2 2 3 4 5 6 6 7 7 7 7 8 8 8 9 9 10 10 11 12 12 12 12 12 13 13 14 14 14
4 3 4 3 3 2 2 2 3 3 2 2 2 2 3 3 3 4 5 6 6 7 7 7 8 8 9 9 10 10 11 11 11 12 12 12 13 12 13 13 14 14 14
3 3 2 2 2 2 2 2 3 3 3 3 3 3 3 3 4 5 6 6 7 8 8 9 9 9 9 10 10 11 11 11 12 12 12 13 13 13 13 13 14 14 15
1 1 1 2 2 2 2 3 4 4 4 4 4 4 4 4 4 5 6 7 8 8 9 9 9 10 10 10 11 11 11 12 12 13 13 14 14 14 14 13 13 15 16
1 0 0 2 3 3 3 4 5 5 5 5 4 4 4 4 5 6 6 7 7 8 9 9 10 11 11 12 12 13 13 13 14 14 14 14 14 14 14 14 15 15 15
2 1 1 2 3 3 3 4 5 6 6 6 6 5 6 6 6 7 8 8 8 9 10 10 11 12 12 13 13 13 13 14 15 15 14 14 14 14 15 16 16 15 15
3 2 3 3 3 4 4 5 6 6 7 7 7 6 7 7 7 8 9 9 10 10 10 10 11 12 13 14 14 13 14 14 14 14 14 15 15 16 16 17 16 16 16
4 4 4 4 5 6 6 7 7 7 8 8 8 7 8 8 9 9 9 10 10 11 12 12 13 13 14 14 14 14 15 15 15 14 15 16 16 17 18 17 17 17 17
4 4 5 5 6 6 7 7 7 9 9 9 8 8 9 9 9 10 10 11 11 12 13 13 13 14 14 15 15 16 16 16 15 16 16 17 17 17 18 19 19 18 18
4 4 5 6 7 7 7 7 8 8 9 9 10 10 10 10 11 11 11 12 12 13 13 14 14 15 15 15 15 15 15 16 16 17 17 18 18 18 18 18 19 19 19
5 5 6 6 6 7 7 7 8 9 10 10 10 11 11 12 12 13 13 12 13 13 13 14 15 14 14 15 15 16 16 17 17 17 18 18 18 18 18 18 18 19 20
6 5 6 6 7 7 7 8 8 9 10 11 11 12 13 13 13 14 14 14 14 14 14 14 14 15 15 15 16 17 17 17 17 17 18 18 18 18 18 18 19 19 20
7 6 6 6 7 8 8 8 9 10 11 12 13 13 13 14 14 15 15 16 16 16 15 15 15 15 16 16 16 17 18 18 18 18 18 18 18 19 19 19 19 20 20
8 7 7 8 8 9 9 9 10 11 11 12 12 13 14 15 15 15 16 17 17 16 16 15 16 16 17 18 18 19 19 20 19 19 19 20 19 19 19 19 19 20 20
9 9 9 9 9 9 10 11 11 12 12 13 14 14 15 16 16 16 16 16 17 17 17 17 18 18 19 19 20 20 20 20 20 20 20 20 20 20 19 19 20 20 21
11 11 12 11 11 12 12 12 13 13 13 14 14 15 15 16 16 16 17 17 18 18 18 19 19 20 21 21 21 21 21 21 21 21 21 20 20 20 20 20 20 21 22
13 13 13 13 13 14 14 14 14 14 15 15 15 16 17 17 18 19 19 19 19 19 20 21 21 22 22 22 22 22 22 22 22 22 22 21 21 21 21 21 22 22 23
15 14 14 15 15 15 16 16 16 17 17 17 18 18 18 18 19 19 20 20 20 21 21 22 22 22 23 23 23 23 23 22 22 23 22 22 22 22 23 23 24 24 24
15 16 16 16 16 16 17 17 18 18 18 19 19 19 19 19 20 20 21 22 22 23 23 23 24 24 24 24 24 24 23 23 23 23 22 23 23 24 24 24 25 26 26
16 17 17 17 17 17 18 18 18 19 19 19 20 20 20 21 21 22 23 23 24 24 24 25 25 26 25 25 25 24 24 24 25 25 25 25 25 25 26 26 26 27 27
18 18 18 18 18 19 19 19 19 19 19 20 20 21 21 22 23 23 24 24 24 24 25 26 26 26 26 25 25 25 25 24 24 25 26 26 27 26 26 27 27 28 27
19 20 20 20 20 19 19 20 20 20 20 21 22 22 23 24 25 25 25 25 25 25 26 27 27 26 26 25 25 26 26 25 25 26 26 26 27 27 27 27 28 28 27
21 21 22 22 22 21 21 21 20 21 22 22 23 24 24 25 26 26 26 25 25 26 26 26 27 26 26 26 26 26 26 27 27 27 27 27 26 27 27 27 27 27 27
23 24 24 24 23 23 23 23 23 23 23 24 24 25 25 26 27 26 26 26 26 27 27 27 27 27 27 27 27 26 27 27 28 27 27 27 26 27 27 27 27 27 27
Wind_Direction
140 141 130 143 148 151 153 154 159 173 187 198 208 222 241 261 268 271 275 282 284 288 289 288 282 274 275 275 274 272 272 273 275 275 274 274 272 269 265 263 257 260 262
128 126 129 136 144 150 149 155 161 164 184 211 222 244 266 275 282 279 282 290 290 291 294 295 290 285 283 280 277 278 277 277 277 277 278 274 272 270 268 262 261 263 262
129 131 140 143 140 151 169 184 187 201 210 214 230 254 270 283 296 294 288 287 287 290 295 294 290 286 288 287 283 281 281 278 280 278 276 276 273 268 266 263 265 264 262
124 133 147 152 146 166 181 194 207 217 207 222 253 270 288 286 297 300 296 294 290 289 293 294 294 293 291 289 286 285 283 280 280 282 278 276 273 269 266 265 267 262 260
109 112 147 171 170 181 202 221 218 229 250 269 268 277 289 290 292 299 300 300 296 291 291 294 294 295 293 291 290 289 286 284 283 281 279 278 276 272 269 266 265 261 259
90 119 158 182 204 236 237 238 238 243 256 265 265 269 281 281 282 289 293 297 297 296 297 298 297 296 295 294 293 291 289 287 286 283 282 279 276 275 271 270 267 264 260
45 203 208 221 228 239 239 241 249 257 258 260 265 273 279 281 282 287 290 292 292 295 295 296 297 297 296 295 296 292 290 288 285 284 284 280 276 272 271 270 269 271 267
16 348 270 245 249 247 250 260 263 265 266 265 261 264 271 277 287 292 293 292 291 294 296 296 297 299 298 297 298 293 291 289 286 287 285 282 278 275 274 273 273 272 270
328 313 301 283 278 273 270 266 269 270 269 269 265 272 278 282 287 289 290 291 293 294 296 298 299 299 298 295 296 295 294 295 292 289 288 286 283 281 279 276 274 272 271
301 304 298 291 290 289 280 271 273 275 274 274 269 273 280 285 288 286 288 290 292 295 296 297 299 299 299 299 298 299 298 294 293 290 289 289 288 283 280 276 273 271 270
309 303 297 288 290 287 283 278 283 287 285 281 276 279 284 288 288 285 289 294 294 296 298 298 300 301 300 301 300 299 299 295 290 291 292 290 289 285 281 278 275 272 272
321 316 311 304 292 285 282 284 286 289 288 283 280 281 282 284 287 289 292 295 297 298 299 298 299 299 300 302 302 300 300 297 293 292 292 292 290 287 284 283 279 275 274
318 314 310 306 300 295 292 290 289 291 290 288 285 285 284 285 287 289 290 294 297 298 298 299 302 301 301 301 302 301 299 298 297 295 295 293 291 289 288 286 283 279 277
319 311 306 304 304 303 301 296 296 295 294 292 291 289 287 285 288 289 290 290 294 294 296 299 302 302 303 303 302 301 299 298 297 299 299 296 293 290 288 287 284 280 279
317 313 310 309 310 307 303 297 294 295 295 295 292 291 290 288 289 289 288 289 291 293 294 297 300 300 302 303 303 302 303 300 299 300 300 298 296 293 290 286 285 284 281
321 320 314 311 309 309 306 300 296 294 295 296 296 294 292 291 290 288 287 288 289 291 292 293 296 298 299 299 300 301 301 301 300 302 301 298 295 293 291 287 283 283 282
310 317 321 319 314 311 307 301 297 295 294 293 294 294 294 291 289 289 288 289 291 293 293 293 295 297 298 299 299 300 299 299 299 301 300 298 294 291 290 287 284 284 284
308 311 312 308 308 308 305 302 299 296 296 295 295 293 293 293 292 291 292 291 292 293 293 294 296 298 298 298 299 297 296 297 297 297 298 296 295 291 289 287 285 285 284
304 308 308 304 303 303 302 300 298 297 296 295 295 294 294 294 294 294 293 292 292 292 292 293 294 295 298 298 299 297 295 295 296 295 296 296 296 292 290 288 288 286 284
301 304 302 301 300 299 299 298 296 294 294 293 293 294 296 296 296 295 294 293 292 292 292 293 293 294 296 297 297 296 294 294 294 294 295 296 296 295 291 287 287 286 285
298 299 299 300 300 301 299 297 294 293 292 292 293 293 294 295 296 296 295 294 292 292 292 293 294 294 295 296 296 295 294 292 293 293 293 294 294 294 293 291 288 288 287
294 298 301 300 299 299 300 297 296 294 294 295 295 294 293 295 297 297 297 295 293 291 290 292 294 295 296 295 295 295 294 291 290 291 291 292 291 292 292 290 289 288 286
291 294 297 299 299 298 300 300 299 297 296 297 296 295 294 295 296 296 296 294 293 292 292 292 294 295 294 294 294 294 294 293 291 290 290 291 290 289 290 290 290 290 289
287 290 293 295 297 296 296 298 299 297 296 296 295 294 294 295 296 296 296 295 295 293 293 293 294 294 294 294 294 294 293 292 291 291 291 291 291 291 292 291 290 289 288
286 289 291 293 295 296 295 295 295 296 297 297 297 296 296 296 297 295 295 295 295 294 293 293 293 292 293 293 293 292 292 293 293 292 292 292 292 293 292 290 289 288 288
284 287 289 291 294 295 293 292 294 296 297 297 297 297 296 296 296 294 293 293 294 293 293 294 294 293 293 293 293 293 293 294 294 293 292 292 293 293 292 290 289 288 288
Height
5880 5881 5882 5883 5883 5884 5884 5885 5886 5886 5887 5888 5888 5889 5889 5890 5890 5890 5889 5889 5889 5889 5889 5889 5888 5888 5888 5888 5887 5887 5887 5887 5886 5886 5886 5886 5886 5886 5886 5886 5886 5886 5887
5881 5882 5882 5883 5884 5884 5885 5885 5886 5886 5887 5888 5888 5888 5888 5889 5889 5889 5888 5888 5888 5888 5888 5887 5887 5887 5886 5886 5886 5885 5885 5885 5884 5884 5884 5883 5883 5883 5883 5883 5884 5884 5884
5882 5883 5883 5884 5884 5884 5885 5885 5886 5886 5887 5887 5888 5888 5888 5888 5888 5888 5887 5887 5887 5887 5886 5886 5886 5885 5885 5884 5884 5883 5883 5882 5882 5881 5881 5880 5880 5880 5880 5880 5880 5881 5881
5883 5883 5884 5884 5884 5885 5885 5886 5886 5886 5887 5887 5887 5887 5887 5887 5887 5887 5887 5886 5886 5885 5885 5885 5884 5884 5883 5883 5882 5881 5881 5880 5879 5879 5878 5877 5877 5877 5876 5877 5877 5877 5877
5883 5884 5884 5884 5884 5885 5885 5886 5886 5886 5886 5886 5886 5886 5886 5886 5886 5886 5886 5885 5884 5884 5883 5883 5882 5882 5881 5880 5880 5879 5878 5877 5877 5876 5875 5874 5874 5873 5873 5873 5873 5873 5874
5884 5884 5884 5884 5885 5885 5885 5886 5886 5886 5885 5885 5885 5885 5885 5885 5885 5884 5884 5884 5883 5882 5882 5881 5880 5880 5879 5878 5877 5876 5875 5875 5874 5873 5872 5871 5871 5870 5870 5870 5869 5870 5870
5885 5884 5884 5884 5884 5885 5885 5885 5885 5885 5885 5884 5884 5884 5884 5884 5883 5883 5882 5882 5881 5880 5880 5879 5878 5877 5877 5876 5875 5874 5873 5872 5871 5870 5869 5868 5868 5867 5867 5866 5866 5866 5866
5885 5885 5885 5884 5884 5884 5884 5884 5884 5884 5883 5883 5883 5883 5883 5883 5882 5881 5881 5880 5879 5879 5878 5877 5876 5875 5874 5873 5872 5871 5870 5869 5868 5867 5866 5865 5864 5864 5863 5863 5862 5862 5862
5885 5884 5884 5884 5883 5883 5883 5883 5882 5882 5882 5882 5882 5882 5881 5881 5880 5880 5879 5878 5877 5876 5876 5875 5874 5873 5871 5870 5869 5868 5867 5866 5865 5864 5863 5862 5861 5860 5860 5859 5858 5858 5858
5884 5884 5883 5883 5882 5882 5881 5881 5881 5880 5880 5880 5880 5880 5880 5879 5879 5878 5877 5876 5875 5874 5873 5872 5871 5870 5869 5867 5866 5865 5864 5863 5862 5860 5859 5859 5857 5856 5855 5855 5854 5854 5854
5883 5883 5882 5882 5881 5880 5880 5880 5879 5879 5878 5878 5878 5877 5877 5877 5876 5875 5875 5874 5873 5872 5871 5869 5868 5867 5866 5864 5863 5861 5860 5859 5858 5857 5855 5854 5853 5852 5851 5850 5849 5849 5849
5882 5882 5881 5880 5879 5879 5879 5878 5878 5877 5877 5876 5876 5875 5875 5874 5873 5873 5872 5871 5870 5869 5868 5866 5865 5864 5862 5861 5859 5858 5856 5855 5853 5852 5851 5850 5849 5847 5846 5845 5844 5844 5844
5882 5881 5880 5879 5878 5877 5877 5876 5876 5875 5875 5874 5873 5872 5872 5871 5870 5870 5869 5868 5867 5866 5865 5863 5862 5860 5859 5857 5856 5854 5853 5851 5849 5848 5847 5845 5844 5843 5841 5840 5839 5839 5839
5880 5879 5878 5877 5877 5876 5875 5874 5874 5873 5872 5871 5870 5869 5868 5868 5867 5866 5865 5864 5864 5863 5861 5860 5858 5857 5855 5854 5852 5850 5849 5847 5845 5844 5842 5841 5839 5838 5836 5835 5834 5834 5833
5879 5878 5877 5876 5875 5874 5873 5873 5872 5871 5870 5868 5867 5866 5865 5864 5863 5863 5862 5861 5860 5859 5858 5856 5855 5853 5851 5850 5848 5846 5844 5843 5841 5839 5838 5836 5834 5833 5832 5830 5829 5828 5828
5877 5876 5875 5874 5873 5872 5871 5870 5869 5868 5867 5866 5864 5863 5862 5861 5860 5859 5858 5857 5856 5855 5854 5853 5851 5849 5847 5846 5844 5842 5840 5838 5837 5835 5833 5831 5829 5828 5826 5825 5824 5823 5822
5875 5874 5873 5872 5871 5869 5868 5867 5866 5865 5864 5862 5861 5860 5859 5857 5856 5855 5854 5853 5852 5851 5849 5849 5847 5845 5843 5841 5839 5837 5835 5834 5832 5830 5828 5826 5824 5823 5821 5820 5819 5818 5817
5873 5872 5871 5870 5868 5867 5865 5864 5863 5861 5860 5859 5858 5856 5855 5854 5852 5851 5850 5849 5847 5846 5845 5844 5842 5840 5838 5836 5834 5832 5830 5828 5826 5825 5823 5821 5819 5817 5816 5814 5813 5812 5811
5870 5869 5868 5867 5865 5864 5862 5861 5860 5858 5857 5855 5854 5853 5851 5850 5848 5847 5846 5844 5843 5841 5840 5838 5837 5835 5833 5831 5829 5827 5824 5822 5821 5819 5817 5815 5813 5812 5810 5809 5808 5806 5805
5867 5866 5864 5863 5862 5860 5859 5857 5856 5854 5852 5851 5850 5848 5847 5845 5844 5842 5840 5839 5837 5836 5834 5833 5831 5829 5827 5825 5823 5821 5819 5816 5815 5813 5811 5810 5808 5806 5805 5803 5802 5800 5799
5863 5862 5861 5859 5857 5856 5854 5853 5851 5849 5848 5846 5845 5843 5842 5840 5839 5837 5835 5834 5832 5830 5828 5826 5825 5823 5820 5818 5817 5815 5812 5810 5808 5807 5805 5804 5802 5800 5798 5797 5795 5794 5792
5859 5858 5856 5855 5853 5851 5849 5847 5846 5844 5843 5841 5839 5838 5836 5835 5833 5831 5829 5827 5826 5824 5822 5820 5818 5816 5814 5811 5810 5808 5806 5804 5802 5801 5799 5798 5796 5794 5792 5790 5788 5786 5785
5855 5854 5852 5851 5849 5847 5845 5843 5840 5839 5837 5835 5834 5832 5831 5829 5827 5825 5823 5821 5819 5817 5815 5813 5811 5809 5807 5805 5803 5801 5799 5797 5796 5794 5792 5791 5789 5787 5785 5782 5781 5779 5777
5850 5849 5847 5846 5844 5842 5840 5838 5836 5834 5832 5830 5828 5826 5825 5823 5821 5818 5816 5814 5812 5810 5808 5806 5804 5802 5799 5797 5795 5794 5792 5790 5789 5787 5785 5783 5781 5779 5777 5775 5773 5771 5770
5845 5844 5842 5840 5838 5836 5834 5832 5830 5828 5826 5824 5823 5821 5819 5816 5814 5812 5810 5808 5806 5803 5801 5798 5797 5794 5792 5790 5788 5786 5784 5783 5781 5779 5777 5776 5774 5772 5770 5767 5765 5763 5762
5839 5837 5836 5834 5832 5830 5829 5827 5825 5823 5821 5819 5817 5815 5812 5810 5807 5805 5803 5801 5799 5796 5793 5791 5789 5787 5785 5783 5781 5778 5777 5775 5773 5772 5770 5768 5766 5764 5762 5760 5758 5756 5754